Printer-friendly version
Follow the MPC on Twitter Follow the MPC on Facebook The MPC blog
Minor Planet Center

MPEC 2004-C49 : 2004 CZ1

The following Minor Planet Electronic Circular may be linked-to from your own Web pages, but must not otherwise be redistributed electronically.

A form allowing access to any MPEC is at the bottom of this page.


Read MPEC 2004-C48 Read MPEC 2004-C50


M.P.E.C. 2004-C49                                Issued 2004 Feb. 13, 06:12 UT

     The Minor Planet Electronic Circulars contain information on unusual
         minor planets and routine data on comets.  They are published
   on behalf of Commission 20 of the International Astronomical Union by the
          Minor Planet Center, Smithsonian Astrophysical Observatory,
                          Cambridge, MA 02138, U.S.A.

         Supported in part by the Steven and Michele Kirsch Foundation
             Prepared using the Tamkin Foundation Computer Network

                              MPC@CFA.HARVARD.EDU
          URL http://cfa-www.harvard.edu/iau/mpc.html  ISSN 1523-6714

                                   2004 CZ1

Observations:
     K04C01Z* C2004 02 12.12941 08 33 35.16 +16 09 02.6          20.2 V EC049691
     K04C01Z  C2004 02 12.15673 08 33 28.83 +16 09 52.2          20.0 V EC049691
     K04C01Z  C2004 02 12.18347 08 33 22.56 +16 10 40.1          20.0 V EC049691
     K04C01Z 5C2004 02 12.28287 08 32 58.96 +16 13 30.0          19.5 R EC049673
     K04C01Z 5C2004 02 12.28646 08 32 58.02 +16 13 36.9                 EC049673
     K04C01Z 5C2004 02 12.29074 08 32 56.94 +16 13 44.6                 EC049673
     K04C01Z 5C2004 02 12.29421 08 32 56.03 +16 13 51.0                 EC049673
     K04C01Z  C2004 02 12.29842 08 32 54.37 +16 14 01.6          19.7 V EC049291
     K04C01Z  C2004 02 12.30236 08 32 53.43 +16 14 07.9          19.8 V EC049291
     K04C01Z  C2004 02 12.30623 08 32 52.45 +16 14 15.1          19.9 V EC049291
     K04C01Z  C2004 02 12.31745 08 32 49.15 +16 14 31.8          20.2 R EC049448
     K04C01Z  C2004 02 12.32392 08 32 47.49 +16 14 43.2          19.2 R EC049448
     K04C01Z  C2004 02 12.33039 08 32 45.87 +16 14 53.6          19.9 R EC049448
     K04C01Z  C2004 02 12.90867 08 30 43.95 +16 32 15.4          19.5 R EC049176
     K04C01Z  C2004 02 12.91025 08 30 42.32 +16 32 02.1                 EC049246
     K04C01Z  C2004 02 12.91087 08 30 42.16 +16 32 04.6                 EC049246
     K04C01Z  C2004 02 12.91121 08 30 43.29 +16 32 20.3          19.5 R EC049176
     K04C01Z  C2004 02 12.91159 08 30 41.93 +16 32 05.5                 EC049246
     K04C01Z  C2004 02 12.91216 08 30 41.79 +16 32 06.4                 EC049246
     K04C01Z  C2004 02 12.91362 08 30 41.37 +16 32 08.9                 EC049246
     K04C01Z  C2004 02 12.91394 08 30 42.57 +16 32 25.7          19.5 R EC049176
     K04C01Z  C2004 02 12.91530 08 30 42.22 +16 32 28.3          19.6 R EC049176
     K04C01Z 5C2004 02 13.14780 08 29 51.64 +16 40 00.4          19.5 R EC049673
     K04C01Z 5C2004 02 13.15208 08 29 50.56 +16 40 09.0                 EC049673
     K04C01Z 5C2004 02 13.15625 08 29 49.43 +16 40 17.8                 EC049673
     K04C01Z 5C2004 02 13.16551 08 29 47.03 +16 40 37.3                 EC049673
     K04C01Z 5C2004 02 13.17072 08 29 45.64 +16 40 47.8                 EC049673
     K04C01Z 5C2004 02 13.18171 08 29 42.72 +16 41 10.9                 EC049673
     K04C01Z  C2004 02 13.19248 08 29 39.04 +16 41 38.7          19.1 R EC049G90
     K04C01Z  C2004 02 13.19480 08 29 38.42 +16 41 43.2          18.9 R EC049G90
     K04C01Z  C2004 02 13.19713 08 29 37.72 +16 41 47.9          19.1 R EC049G90

Observer details:
176 Observatori Astronomic de Consell.  Observers A. Lopez, R. Pacheco,
    J. Forteza.  0.41-m f/4 reflector + CCD.
246 Klet Observatory-KLENOT.  Observer M. Tichy.  1.06-m KLENOT Telescope
    + CCD.
291 LPL/Spacewatch II.  Observer A. S. Descour.  1.8-m f/2.7 reflector + CCD.
448 Desert Moon Observatory.  Observer B. L. Stevens.  0.3-m
    Schmidt-Cassegrain + CCD.
673 Table Mountain Observatory, Wrightwood.  Observer J. Young.  0.6-m
    reflector + CCD.
691 Steward Observatory, Kitt Peak.  Observer J. A. Larsen.  0.9-m f/3
    reflector + CCD.
G90 Three Buttes Observatory, Tucson.  Observer G. R. Jones.  0.35-m f/11.0
    Schmidt-Cassegrain + CCD.

Orbital elements:
2004 CZ1
Epoch 2004 Feb. 5.0 TT = JDT 2453040.5                  MPC
M 327.68544              (2000.0)            P               Q
n   0.52099210     Peri.   65.90212     -0.83931884     +0.54330351
a   1.5296144      Node   146.99734     -0.51065282     -0.77584557
e   0.4509854      Incl.    2.01062     -0.18648749     -0.32075685
P   1.89           H   24.4           G   0.15
From 31 observations 2004 Feb. 12-13.

Ephemeris:
2004 CZ1                 a,e,i = 1.53, 0.45, 2                   q = 0.8398
Date    TT    R. A. (2000) Decl.     Delta      r     Elong.  Phase     V
2004 02 05    08 49.35   +13 59.6    0.129    1.114   174.2     5.2    20.6
2004 02 06    08 47.81   +14 11.8    0.122    1.107   173.1     6.2    20.5
2004 02 07    08 46.11   +14 25.5    0.115    1.100   171.8     7.3    20.4
2004 02 08    08 44.22   +14 40.8    0.108    1.093   170.4     8.6    20.4
2004 02 09    08 42.11   +14 58.2    0.102    1.087   169.0    10.0    20.3
2004 02 10    08 39.73   +15 17.8    0.095    1.080   167.4    11.5    20.2
2004 02 11    08 37.03   +15 40.3    0.089    1.073   165.8    13.1    20.1
2004 02 12    08 33.94   +16 06.1    0.082    1.066   164.0    14.8    19.9
2004 02 13    08 30.36   +16 35.9    0.076    1.060   162.1    16.6    19.8
2004 02 14    08 26.16   +17 10.8    0.070    1.053   160.0    18.7    19.7
2004 02 15    08 21.15   +17 52.1    0.063    1.047   157.7    20.9    19.5
2004 02 16    08 15.09   +18 41.5    0.057    1.040   155.2    23.5    19.4
2004 02 17    08 07.57   +19 41.5    0.051    1.034   152.2    26.5    19.2
2004 02 18    07 58.00   +20 55.6    0.045    1.027   148.8    29.9    19.0
2004 02 19    07 45.43   +22 28.6    0.039    1.021   144.6    34.1    18.8
2004 02 20    07 28.25   +24 27.1    0.034    1.014   139.3    39.4    18.6
2004 02 21    07 03.63   +26 58.8    0.028    1.008   132.4    46.4    18.4
2004 02 22    06 26.45   +30 07.2    0.023    1.002   122.8    56.0    18.3
2004 02 23    05 28.10   +33 26.8    0.019    0.996   109.3    69.7    18.3
2004 02 24    04 00.47   +35 00.8    0.017    0.990    90.4    88.6    18.6
2004 02 25    02 16.38   +31 40.8    0.016    0.984    67.9   111.2    19.6

Timothy B. Spahr             (C) Copyright 2004 MPC           M.P.E.C. 2004-C49

Read MPEC 2004-C48 Read MPEC 2004-C50


MPEC number:

Enter an MPEC number in one of the following forms:

  • 1997-B01 (the full form)
  • J97B01 (the packed version of the full form)
  • B01 (the abbreviated form)

Valid HTML 4.01!